Flag for Germany Weather past 2 weeks in Zweibrücken, Rhineland-Palatinate, Germany

Now
52 °F

Light rain. Mostly cloudy.


Feels Like: 49 °F
Forecast: 37 / 54 °F
Wind: 9 mph from Northeast

Location: Saarbruecken / Ensheim

Current Time: Apr 27, 2015 at 4:19:28 PM

Latest Report: Apr 27, 2015 at 3:50 PM


Visibility: 6 mi

Pressure: 29.62 "Hg

Humidity: 88%

Dew point: 48 °F

Location of ZweibrückenLocation

Historic Weather in Zweibrücken — Graph

°F

Zweibrücken temperature yesterday

Maximum temperature yesterday: 66 °F (at 2:20 PM)
Minimum temperature yesterday: 52 °F (at 4:20 AM)
Average temperature yesterday: 58 °F

Past Weeks' High & Low Weather Summary

 TemperatureHumidityPressure
High75 °F (Apr 15, 2:50 PM)100% (Apr 26, 8:50 AM)30.45 "Hg (Apr 26, 8:50 AM)
Low36 °F (Apr 19, 4:50 AM)19% (Apr 15, 4:20 PM)29.59 "Hg (Apr 27, 2:50 AM)
Average55 °F56%30.09 "Hg
* Reported Apr 12 3:20 PM — Apr 27 3:20 PM, Zweibrücken, Weather by CustomWeather, © 2015

Note: Actual official high and low records may vary slightly from our data, if they occured in-between our weather recording intervals... More about our weather records

Advertising

Zweibrücken weather history for previous 24 hours

 ConditionsComfort  
Time TempWeatherWind HumidityBarometerVisibility
3:20 PM
Mon, Apr 27
52 °FLight rain. Mostly cloudy.13 mph94%29.62 "Hg5 mi
2:50 PM54 °FLight rain. Partly sunny.12 mph88%29.62 "Hg5 mi
2:20 PM52 °FRain. Partly sunny.14 mph94%29.59 "Hg4 mi
1:50 PM52 °FRain. Broken clouds.13 mph94%29.62 "Hg4 mi
1:20 PM52 °FRain. Partly sunny.13 mph94%29.59 "Hg4 mi
12:50 PM52 °FLight rain. Partly sunny.12 mph94%29.62 "Hg5 mi
12:20 PM52 °FLight rain. Fog.14 mph94%29.59 "Hg3 mi
11:50 AM52 °FLight rain. Broken clouds.13 mph88%29.62 "Hg5 mi
11:20 AM54 °FLight rain. Partly sunny.13 mph88%29.59 "Hg4 mi
10:50 AM55 °FLight rain. Broken clouds.2 mph88%29.59 "Hg4 mi
10:20 AM54 °FLight rain. Fog.5 mph94%29.59 "Hg3 mi
9:50 AM54 °FLight rain. Fog.7 mph94%29.59 "Hg3 mi
9:20 AM54 °FLight rain. Fog.5 mph94%29.59 "Hg3 mi
8:50 AM54 °FLight rain. Fog.6 mph94%29.59 "Hg3 mi
8:20 AM54 °FLight rain. Fog.5 mph94%29.59 "Hg3 mi
7:50 AM54 °FLight rain. Fog.5 mph94%29.59 "Hg3 mi
7:20 AM54 °FLight rain. Partly sunny.7 mph94%29.59 "Hg4 mi
6:50 AM54 °FLight rain. Passing clouds.9 mph94%29.59 "Hg4 mi
6:20 AM54 °FLight rain. Passing clouds.9 mph94%29.59 "Hg5 mi
5:50 AM54 °FLight rain. Passing clouds.7 mph94%29.59 "HgN/A
5:20 AM54 °FLight rain. Passing clouds.6 mph94%29.59 "HgN/A
4:50 AM54 °FLight rain. Partly cloudy.5 mph94%29.59 "HgN/A
4:20 AM54 °FLight rain. Passing clouds.7 mph94%29.59 "HgN/A
3:50 AM54 °FCool.6 mph94%29.59 "HgN/A
3:20 AM54 °FClear.6 mph94%29.59 "Hg10 mi
2:50 AM55 °FPassing clouds.7 mph88%29.59 "HgN/A
2:20 AM55 °FPassing clouds.12 mph88%29.62 "HgN/A
1:50 AM55 °FPassing clouds.5 mph88%29.62 "HgN/A
1:20 AM55 °FPassing clouds.3 mph88%29.62 "HgN/A
12:50 AM57 °FPassing clouds.2 mph82%29.62 "HgN/A
12:20 AM57 °FPassing clouds.2 mph82%29.62 "HgN/A
11:50 PM
Sun, Apr 26
57 °FPassing clouds.9 mph82%29.62 "HgN/A
11:20 PM57 °FClear.2 mph82%29.62 "Hg10 mi
10:50 PM57 °FPassing clouds.5 mph82%29.62 "HgN/A
10:20 PM57 °FPassing clouds.3 mph82%29.62 "HgN/A
9:50 PM57 °FLight rain. Passing clouds.5 mph82%29.62 "HgN/A
9:20 PM59 °FSprinkles. Broken clouds.6 mph72%29.62 "HgN/A
8:50 PM61 °FLight rain. Broken clouds.9 mph63%29.65 "HgN/A
8:20 PM61 °FPassing clouds.6 mph68%29.62 "HgN/A
7:50 PM63 °FSunny.3 mph64%29.62 "Hg10 mi
7:20 PM63 °FSunny.6 mph59%29.65 "Hg10 mi
6:50 PM64 °FBroken clouds.10 mph60%29.65 "HgN/A
6:20 PM66 °FBroken clouds.2 mph49%29.65 "HgN/A
5:50 PM66 °FMore clouds than sun.3 mph49%29.65 "HgN/A
5:20 PM66 °FBroken clouds.3 mph46%29.68 "HgN/A
4:50 PM66 °FPartly sunny.6 mph49%29.68 "HgN/A
4:20 PM66 °FMild.6 mph43%29.68 "HgN/A
Weather by CustomWeather, © 2015

See weather overviewHow to use our weather pages